Regional Weather Roundup
Issued by NWS

Home | Current Version | Previous Version | Graphics & Text | Print | Product List | Glossary On
Versions: 1 2 3 4 5 6 7 8 9 10 11 12 13 14 15 16 17 18 19 20 21 22 23 24 25 26 27 28 29 30 31 32 33 34 35 36 37 38 39 40 41 42 43 44 45 46 47 48 49 50
000
ASUS45 KPSR 220800
RWRAZ

PRELIMINARY ARIZONA REGIONAL HOURLY WEATHER ROUNDUP
NATIONAL WEATHER SERVICE PHOENIX AZ
100 AM MST MON SEP 22 2014

NOTE: FAIR INDICATES FEW OR NO CLOUDS BELOW 12,000 FEET WITH NO
SIGNIFICANT WEATHER AND/OR OBSTRUCTIONS TO VISIBILITY.

AZZ001>003-036-220900-
NORTHWEST ARIZONA

CITY           SKY/WX    TMP DP  RH WIND       PRES   REMARKS
KINGMAN        CLEAR     62  40  44 CALM      30.08S
$$

AZZ004>008-015-016-018-220900-
NORTH CENTRAL ARIZONA

CITY           SKY/WX    TMP DP  RH WIND       PRES   REMARKS
GRAND CANYON   CLEAR     44  41  89 CALM      30.31S
PRESCOTT       CLEAR     60  45  57 S8        30.20S
FLAGSTAFF      CLEAR     50  46  86 CALM      30.33S
PAYSON         CLOUDY    64  57  77 CALM      30.23R
PAGE           CLEAR     69  58  67 CALM      30.13R
$$

AZZ009>014-017-220900-
NORTHEAST ARIZONA

CITY           SKY/WX    TMP DP  RH WIND       PRES   REMARKS
WINSLOW        NOT AVBL
SAINT JOHNS    CLOUDY    65  58  78 CALM      30.25R
$$

AZZ023-220900-
GREATER PHOENIX AREA

CITY           SKY/WX    TMP DP  RH WIND       PRES   REMARKS
PHOENIX        CLEAR     85  56  37 SE3       29.91R
DEER VALLEY    CLEAR     80  55  42 N3        29.93R
SCOTTSDALE     CLEAR     81  56  42 CALM      29.95R
$$

AZZ027-028-220900-
SOUTHWEST MARICOPA COUNTY AND PINAL COUNTY

CITY           SKY/WX    TMP DP  RH WIND       PRES   REMARKS
CASA GRANDE    CLEAR     81  55  41 CALM      29.95S
$$

AZZ503-504-507>509-220900-
SOUTHEAST ARIZONA

CITY           SKY/WX    TMP DP  RH WIND       PRES   REMARKS
TUCSON         PTCLDY    80  62  54 SE9       30.04S
DAVIS-MONTHAN  PTCLDY    79  62  56 E13       30.02F
NOGALES        CLEAR     66  62  87 E3        30.12S
SIERRA VISTA   PTCLDY    64  63  94 CALM      30.19R
SAFFORD        PTCLDY    75  64  68 E15       30.06S
$$

AZZ020-021-025-026-031-220900-
SOUTHWEST ARIZONA

CITY           SKY/WX    TMP DP  RH WIND       PRES   REMARKS
YUMA           CLEAR     82  60  47 SE5       29.86R
$$

CAZ031-033-041-043-047-048-061-220900-
SOUTHERN CALIFORNIA

CITY           SKY/WX    TMP DP  RH WIND       PRES   REMARKS
DOWNTOWN L.A.  CLEAR     66  61  84 CALM      29.95S
L.A. AIRPORT   CLEAR     67  63  87 S3        29.96R
SAN DIEGO      PTCLDY    70  62  76 CALM      29.97S
BURBANK        CLEAR     65  58  78 CALM      29.96S
ONTARIO        CLEAR     66  58  75 CALM      29.97S
RIVERSIDE      CLEAR     65  59  81 CALM      29.98R
PALM SPRINGS   CLEAR     81  55  40 CALM      29.90R
EL CENTRO NAS  CLEAR     80  50  34 SE5       29.84R
IMPERIAL       CLEAR     82  51  34 SE5       29.84R
BLYTHE         CLEAR     81  43  26 SE7       29.86S
$$

NVZ020-UTZ003-220900-
SOUTHERN NEVADA-UTAH

CITY           SKY/WX    TMP DP  RH WIND       PRES   REMARKS
LAS VEGAS      NOT AVBL
SALT LAKE CITY LGT RAIN  62  59  90 E3        30.14S
$$

NMZ009-TXZ055-220900-
NEW MEXICO-WEST TEXAS

CITY           SKY/WX    TMP DP  RH WIND       PRES   REMARKS
ALBUQUERQUE    PTCLDY    67  54  63 E16       30.30S
EL PASO        CLOUDY    71  63  75 E9        30.18S
$$


........................KEY........................
SKY/WX - SKY CONDITION/WEATHER
TMP    - TEMPERATURE IN FAHRENHEIT
DP     - DEW POINT IN FAHRENHEIT
RH     - RELATIVE HUMIDITY IN PERCENT
WIND   - DIRECTION AND SPEED IN MILES PER HOUR (MPH)
VRB    - VARIABLE WIND DIRECTION
PRES   - MEAN SEA LEVEL PRESSURE IN INCHES OF MERCURY
         F - FALLING PRESSURE   R - RISING PRESSURE
         S - STEADY PRESSURE
VSB    - VISIBILITY IN MILES
HX     - HEAT INDEX IN FAHRENHEIT
WCI    - WIND CHILL INDEX IN FAHRENHEIT
TC     - TEMPERATURE IN CELSIUS WHICH IS ALSO KNOWN AS
         TEMPERATURE IN CENTIGRADE
AFB    - AIR FORCE BASE
         LUKE AFB IS LUKE AIR FORCE BASE
         DAVIS-MONTHAN IS DAVIS-MONTHAN AIR FORCE BASE
NAS    - NAVAL AIR STATION
         EL CENTRO NAS IS EL CENTRO NAVAL AIR STATION
N/A    - NOT AVAILABLE


USA.gov is the U.S. government's official web portal to all federal, state and local government web resources and services.